N77PC KASE-KDEN

Flight info

Callsign N77PC
Flight time 0h 31m
Altitude 26000
Route DCT LINDZ DCT IDENE DCT JNETT SSKII4
Aircraft C700/M-SBDGHM1RWXY/LB2

Departure

Time 2026-05-07 20:09
Airport Aspen-Pitkin County Airport (Sardy Field) (KASE)

Arrival

Time 2026-05-07 20:40
Airport Denver International Airport (KDEN)
Time Latitude Longitude Altitude Speed Heading
2026-05-07 19:56 39.21823 -106.86412 7796 ft 0 kts 75°
2026-05-07 20:02 39.21821 -106.86421 7810 ft 2 kts 75°
2026-05-07 20:02 39.21816 -106.86440 7791 ft 2 kts 75°
2026-05-07 20:02 39.21812 -106.86460 7796 ft 2 kts 75°
2026-05-07 20:02 39.21810 -106.86471 7796 ft 0 kts 75°
2026-05-07 20:03 39.21809 -106.86468 7796 ft 0 kts 98°
2026-05-07 20:03 39.21806 -106.86466 7797 ft 1 kts 141°
2026-05-07 20:03 39.21800 -106.86470 7797 ft 0 kts 207°
2026-05-07 20:04 39.21798 -106.86471 7798 ft 2 kts 207°
2026-05-07 20:04 39.21751 -106.86491 7800 ft 9 kts 172°
2026-05-07 20:04 39.21701 -106.86470 7804 ft 6 kts 158°
2026-05-07 20:04 39.21672 -106.86455 7806 ft 4 kts 158°
2026-05-07 20:05 39.21615 -106.86425 7811 ft 14 kts 158°
2026-05-07 20:05 39.21492 -106.86366 7820 ft 24 kts 160°
2026-05-07 20:05 39.21320 -106.86287 7830 ft 25 kts 159°
2026-05-07 20:05 39.21220 -106.86252 7838 ft 0 kts 184°
2026-05-07 20:08 39.21175 -106.86309 7838 ft 19 kts 259°
2026-05-07 20:08 39.21277 -106.86390 7832 ft 30 kts 340°
2026-05-07 20:08 39.21709 -106.86597 7804 ft 112 kts 341°
2026-05-07 20:08 39.22663 -106.87032 8345 ft 163 kts 341°
2026-05-07 20:09 39.23878 -106.87309 9589 ft 191 kts 351°
2026-05-07 20:09 39.25097 -106.88136 10720 ft 213 kts 309°
2026-05-07 20:09 39.25703 -106.89972 11901 ft 236 kts 287°
2026-05-07 20:10 39.27158 -106.94225 14250 ft 285 kts 303°
2026-05-07 20:10 39.28388 -106.96378 15346 ft 308 kts 307°
2026-05-07 20:10 39.29730 -106.98673 15978 ft 346 kts 306°
2026-05-07 20:10 39.31152 -107.01342 15984 ft 372 kts 303°
2026-05-07 20:11 39.32599 -107.04147 15962 ft 376 kts 304°
2026-05-07 20:11 39.34072 -107.06957 15939 ft 379 kts 302°
2026-05-07 20:11 39.35457 -107.09861 15937 ft 379 kts 301°
2026-05-07 20:11 39.37149 -107.12453 15902 ft 380 kts 320°
2026-05-07 20:12 39.39541 -107.13916 15888 ft 386 kts 344°
2026-05-07 20:12 39.42233 -107.13977 15887 ft 393 kts
2026-05-07 20:12 39.44781 -107.12617 15894 ft 404 kts 30°
2026-05-07 20:12 39.46776 -107.10025 15905 ft 414 kts 52°
2026-05-07 20:13 39.47891 -107.06566 15910 ft 423 kts 75°
2026-05-07 20:13 39.47940 -107.02755 15910 ft 428 kts 98°
2026-05-07 20:13 39.46892 -106.99221 17248 ft 411 kts 117°
2026-05-07 20:13 39.45566 -106.96088 19729 ft 386 kts 118°
2026-05-07 20:14 39.44283 -106.92990 21004 ft 398 kts 116°
2026-05-07 20:14 39.43197 -106.89662 22062 ft 405 kts 106°
2026-05-07 20:14 39.42516 -106.86096 23235 ft 410 kts 98°
2026-05-07 20:14 39.42010 -106.82438 24292 ft 417 kts 97°
2026-05-07 20:15 39.41407 -106.78739 25290 ft 424 kts 102°
2026-05-07 20:15 39.40601 -106.75017 25929 ft 441 kts 104°
2026-05-07 20:15 39.39745 -106.71062 25954 ft 471 kts 102°
2026-05-07 20:15 39.38945 -106.66825 25949 ft 497 kts 101°
2026-05-07 20:16 39.38418 -106.63930 25945 ft 501 kts 101°
2026-05-07 20:16 39.37272 -106.58158 25971 ft 501 kts 103°
2026-05-07 20:16 39.36369 -106.53807 25994 ft 503 kts 103°
2026-05-07 20:16 39.35505 -106.49425 26005 ft 502 kts 102°
2026-05-07 20:17 39.34395 -106.45149 26020 ft 502 kts 110°
2026-05-07 20:17 39.33519 -106.42312 26031 ft 503 kts 110°
2026-05-07 20:17 39.32299 -106.38137 26047 ft 503 kts 109°
2026-05-07 20:17 39.31086 -106.33904 26067 ft 484 kts 109°
2026-05-07 20:18 39.29910 -106.29977 26067 ft 456 kts 110°
2026-05-07 20:18 39.28778 -106.26281 26062 ft 432 kts 110°
2026-05-07 20:18 39.27709 -106.22699 26055 ft 427 kts 109°
2026-05-07 20:18 39.26659 -106.19116 26044 ft 436 kts 109°
2026-05-07 20:19 39.25827 -106.15378 26022 ft 431 kts 98°
2026-05-07 20:19 39.25494 -106.11599 25141 ft 420 kts 88°
2026-05-07 20:19 39.25690 -106.07864 24162 ft 414 kts 78°
2026-05-07 20:19 39.26268 -106.04274 23177 ft 406 kts 73°
2026-05-07 20:20 39.26881 -106.00744 22164 ft 401 kts 74°
2026-05-07 20:20 39.27460 -105.97253 21207 ft 395 kts 74°
2026-05-07 20:20 39.28035 -105.93813 20286 ft 389 kts 74°
2026-05-07 20:20 39.28612 -105.90429 19416 ft 384 kts 74°
2026-05-07 20:21 39.29176 -105.87087 18878 ft 372 kts 75°
2026-05-07 20:21 39.29710 -105.83886 18863 ft 365 kts 75°
2026-05-07 20:21 39.30269 -105.80593 18860 ft 381 kts 75°
2026-05-07 20:21 39.30833 -105.77264 18860 ft 377 kts 75°
2026-05-07 20:22 39.31374 -105.73997 18853 ft 379 kts 75°
2026-05-07 20:22 39.31925 -105.70662 18850 ft 380 kts 75°
2026-05-07 20:22 39.32478 -105.67325 18849 ft 379 kts 75°
2026-05-07 20:22 39.33028 -105.64008 18844 ft 377 kts 75°
2026-05-07 20:23 39.33573 -105.60703 18848 ft 375 kts 75°
2026-05-07 20:23 39.34117 -105.57396 18842 ft 377 kts 75°
2026-05-07 20:23 39.34664 -105.54078 18836 ft 377 kts 75°
2026-05-07 20:23 39.35209 -105.50764 18831 ft 376 kts 75°
2026-05-07 20:24 39.35749 -105.47464 18837 ft 375 kts 75°
2026-05-07 20:24 39.36289 -105.44155 18837 ft 376 kts 75°
2026-05-07 20:24 39.36831 -105.40845 18833 ft 377 kts 75°
2026-05-07 20:24 39.37371 -105.37533 18828 ft 376 kts 75°
2026-05-07 20:25 39.37906 -105.34234 18830 ft 374 kts 75°
2026-05-07 20:25 39.38438 -105.30946 18821 ft 373 kts 75°
2026-05-07 20:25 39.38974 -105.27659 18823 ft 374 kts 75°
2026-05-07 20:25 39.39509 -105.24357 18818 ft 376 kts 75°
2026-05-07 20:26 39.40043 -105.21039 18817 ft 377 kts 75°
2026-05-07 20:26 39.40568 -105.17761 18818 ft 376 kts 75°
2026-05-07 20:26 39.41102 -105.14448 18824 ft 376 kts 75°
2026-05-07 20:26 39.41635 -105.11142 18827 ft 375 kts 76°
2026-05-07 20:27 39.42163 -105.07839 18829 ft 376 kts 76°
2026-05-07 20:27 39.42682 -105.04521 18831 ft 376 kts 76°
2026-05-07 20:27 39.43221 -105.01209 18842 ft 375 kts 75°
2026-05-07 20:27 39.43745 -104.97983 18841 ft 356 kts 76°
2026-05-07 20:28 39.44214 -104.94955 18838 ft 331 kts 76°
2026-05-07 20:28 39.44656 -104.92126 18830 ft 310 kts 75°
2026-05-07 20:28 39.45480 -104.89678 18829 ft 292 kts 46°
2026-05-07 20:28 39.47107 -104.88218 18838 ft 288 kts 15°
2026-05-07 20:29 39.49055 -104.87589 18845 ft 288 kts
2026-05-07 20:29 39.51007 -104.86983 18847 ft 290 kts 12°
2026-05-07 20:29 39.52896 -104.86049 18836 ft 290 kts 19°
2026-05-07 20:29 39.54712 -104.84956 18377 ft 289 kts 20°
2026-05-07 20:30 39.56556 -104.83926 17821 ft 287 kts 18°
2026-05-07 20:30 39.58407 -104.82973 17327 ft 284 kts 17°
2026-05-07 20:30 39.60236 -104.82012 16811 ft 283 kts 18°
2026-05-07 20:30 39.62061 -104.81101 16331 ft 277 kts
2026-05-07 20:31 39.63919 -104.81166 15846 ft 264 kts 339°
2026-05-07 20:31 39.65420 -104.82417 15343 ft 255 kts 310°
2026-05-07 20:31 39.66176 -104.84415 14915 ft 252 kts 283°
2026-05-07 20:31 39.66140 -104.86682 14511 ft 255 kts 259°
2026-05-07 20:32 39.65322 -104.88730 14066 ft 262 kts 234°
2026-05-07 20:32 39.63834 -104.90120 13608 ft 271 kts 207°
2026-05-07 20:32 39.61950 -104.90451 13139 ft 280 kts 178°
2026-05-07 20:32 39.60127 -104.89547 12695 ft 287 kts 147°
2026-05-07 20:33 39.58858 -104.87572 12268 ft 287 kts 115°
2026-05-07 20:33 39.58193 -104.85141 11858 ft 285 kts 107°
2026-05-07 20:33 39.57615 -104.82694 11444 ft 282 kts 107°
2026-05-07 20:33 39.57018 -104.80274 11070 ft 281 kts 108°
2026-05-07 20:34 39.56415 -104.77929 11050 ft 271 kts 108°
2026-05-07 20:34 39.55816 -104.75591 11054 ft 274 kts 108°
2026-05-07 20:34 39.55222 -104.73244 11049 ft 279 kts 108°
2026-05-07 20:34 39.54915 -104.70778 11028 ft 279 kts 83°
2026-05-07 20:35 39.55588 -104.68468 10950 ft 275 kts 52°
2026-05-07 20:35 39.57000 -104.66858 10625 ft 268 kts 23°
2026-05-07 20:35 39.58749 -104.66302 10253 ft 255 kts 358°
2026-05-07 20:35 39.60513 -104.66302 9897 ft 252 kts 355°
2026-05-07 20:36 39.62253 -104.66304 9549 ft 248 kts 356°
2026-05-07 20:36 39.63985 -104.66283 9120 ft 249 kts 356°
2026-05-07 20:36 39.65673 -104.66250 8771 ft 229 kts 356°
2026-05-07 20:36 39.67194 -104.66244 8488 ft 207 kts 355°
2026-05-07 20:37 39.68562 -104.66218 8215 ft 187 kts 355°
2026-05-07 20:37 39.69819 -104.66223 7987 ft 175 kts 353°
2026-05-07 20:37 39.71032 -104.66199 7754 ft 175 kts 356°
2026-05-07 20:37 39.72238 -104.66176 7535 ft 172 kts 354°
2026-05-07 20:38 39.73450 -104.66174 7319 ft 175 kts 355°
2026-05-07 20:38 39.74656 -104.66143 7095 ft 173 kts 355°
2026-05-07 20:38 39.75869 -104.66146 6881 ft 176 kts 354°
2026-05-07 20:38 39.77093 -104.66115 6652 ft 172 kts 355°
2026-05-07 20:39 39.78291 -104.66116 6440 ft 179 kts 353°
2026-05-07 20:39 39.79531 -104.66098 6182 ft 174 kts 353°
2026-05-07 20:39 39.80739 -104.66076 5940 ft 177 kts 353°
2026-05-07 20:39 39.81972 -104.66069 5670 ft 178 kts 353°
2026-05-07 20:40 39.83085 -104.66039 5469 ft 141 kts 350°
2026-05-07 20:40 39.83891 -104.66047 5415 ft 84 kts 338°
2026-05-07 20:40 39.84285 -104.66066 5415 ft 51 kts
2026-05-07 20:40 39.84604 -104.66057 5409 ft 44 kts 353°
2026-05-07 20:41 39.84831 -104.66118 5396 ft 26 kts 338°
2026-05-07 20:41 39.84872 -104.66230 5400 ft 14 kts 202°
2026-05-07 20:41 39.84764 -104.66249 5404 ft 19 kts 181°
2026-05-07 20:41 39.84608 -104.66252 5403 ft 26 kts 181°
2026-05-07 20:42 39.84403 -104.66253 5412 ft 31 kts 180°
2026-05-07 20:42 39.84185 -104.66255 5410 ft 31 kts 180°
2026-05-07 20:42 39.84043 -104.66272 5416 ft 13 kts 209°
2026-05-07 20:42 39.83994 -104.66371 5416 ft 14 kts 241°
2026-05-07 20:43 39.83923 -104.66416 5410 ft 7 kts 164°
2026-05-07 20:43 39.83909 -104.66403 5414 ft 2 kts 103°
2026-05-07 20:43 39.83909 -104.66400 5415 ft 0 kts 94°